Home > Weather > Saalfeld/Saale > Past weeks

Flag for Germany Weather for the Past 2 Weeks in Saalfeld/Saale, Thuringia, Germany

Now
48 °F

Broken clouds.


Feels Like: 40 °F
Forecast: 41 / 50 °F
Wind: 24 mph from Southwest

Location: Erfurt-Bindersleben

Current Time: Feb 8, 2016 at 1:42:52 PM

Latest Report: Feb 8, 2016 at 1:20 PM


Visibility: N/A

Pressure: 29.39 "Hg

Humidity: 71%

Dew point: 39 °F

Location of Saalfeld/SaaleLocation

Historic Weather in Saalfeld/Saale — Graph

°F

Saalfeld/Saale Temperature Yesterday

Maximum temperature yesterday: 54 °F (at 1:20 PM)
Minimum temperature yesterday: 41 °F (at 2:20 AM)
Average temperature yesterday: 46 °F

High & Low Weather Summary for the Past Weeks

 TemperatureHumidityPressure
High54 °F (Feb 1, 1:20 PM)100% (Jan 24, 9:50 PM)30.45 "Hg (Jan 24, 9:50 PM)
Low32 °F (Feb 5, 4:20 AM)47% (Feb 7, 1:20 PM)29.39 "Hg (Feb 8, 11:50 AM)
Average43 °F79%30.02 "Hg
* Reported Jan 24 12:20 PM — Feb 8 12:20 PM, Saalfeld/Saale, Weather by CustomWeather, © 2016

Note: Actual official high and low records may vary slightly from our data, if they occured in-between our weather recording intervals... More about our weather records

Advertising

Saalfeld/Saale Weather History for the Previous 24 Hours

 ConditionsComfort  
Time TempWeatherWind HumidityBarometerVisibility
12:20 PM
Mon, Feb 8
48 °FBroken clouds.29 mph66%29.39 "HgN/A
11:50 AM48 °FBroken clouds.30 mph66%29.39 "HgN/A
11:20 AM46 °FBroken clouds.26 mph71%29.42 "HgN/A
10:50 AM45 °FBroken clouds.26 mph71%29.45 "HgN/A
10:20 AM45 °FSprinkles. Broken clouds.30 mph66%29.42 "HgN/A
9:50 AM45 °FBroken clouds.29 mph66%29.45 "HgN/A
9:20 AM43 °FBroken clouds.31 mph71%29.42 "HgN/A
8:50 AM43 °FBroken clouds.32 mph71%29.45 "HgN/A
8:20 AM43 °FBroken clouds.28 mph71%29.45 "HgN/A
7:50 AM43 °FScattered clouds.22 mph71%29.47 "HgN/A
7:20 AM43 °FPassing clouds.18 mph71%29.50 "HgN/A
6:50 AM43 °FPartly cloudy.30 mph66%29.50 "HgN/A
6:20 AM43 °FPassing clouds.28 mph66%29.50 "HgN/A
5:50 AM43 °FClear.25 mph66%29.53 "Hg10 mi
5:20 AM43 °FClear.22 mph66%29.56 "Hg10 mi
4:20 AM41 °FPassing clouds.25 mph70%29.59 "HgN/A
3:50 AM43 °FPassing clouds.22 mph71%29.62 "HgN/A
3:20 AM43 °FPassing clouds.20 mph71%29.62 "HgN/A
2:50 AM43 °FPassing clouds.18 mph71%29.65 "HgN/A
2:20 AM43 °FClear.17 mph71%29.65 "Hg10 mi
1:50 AM43 °FPassing clouds.16 mph71%29.68 "HgN/A
1:20 AM43 °FPassing clouds.15 mph71%29.68 "HgN/A
12:50 AM43 °FPartly cloudy.12 mph71%29.71 "HgN/A
12:20 AM43 °FClear.16 mph71%29.71 "Hg10 mi
11:50 PM
Sun, Feb 7
41 °FPassing clouds.13 mph76%29.71 "HgN/A
11:20 PM41 °FPassing clouds.14 mph76%29.71 "HgN/A
10:50 PM41 °FClear.17 mph81%29.71 "Hg10 mi
10:20 PM43 °FClear.18 mph71%29.71 "Hg10 mi
9:50 PM45 °FClear.15 mph66%29.71 "Hg10 mi
9:20 PM45 °FClear.13 mph71%29.71 "Hg10 mi
8:50 PM45 °FClear.13 mph71%29.71 "Hg10 mi
8:20 PM45 °FPassing clouds.14 mph71%29.68 "HgN/A
7:50 PM45 °FPartly cloudy.14 mph71%29.68 "HgN/A
7:20 PM45 °FPartly cloudy.10 mph76%29.68 "HgN/A
6:50 PM46 °FPassing clouds.16 mph71%29.65 "HgN/A
6:20 PM46 °FPassing clouds.14 mph71%29.65 "HgN/A
5:50 PM46 °FPassing clouds.14 mph76%29.65 "HgN/A
5:20 PM48 °FPartly cloudy.18 mph71%29.62 "HgN/A
4:20 PM48 °FSunny.14 mph66%29.62 "Hg10 mi
3:50 PM50 °FSunny.9 mph62%29.59 "Hg10 mi
3:20 PM50 °FSunny.13 mph62%29.59 "Hg10 mi
2:50 PM52 °FSunny.15 mph58%29.56 "Hg10 mi
2:20 PM54 °FSunny.12 mph51%29.59 "Hg10 mi
1:50 PM54 °FSunny.10 mph47%29.59 "Hg10 mi
1:20 PM54 °FSunny.13 mph47%29.59 "Hg10 mi
Weather by CustomWeather, © 2016

See weather overviewHow to use our weather pages